Regional Weather Roundup
Issued by NWS

Home | Current Version | Previous Version | Text Only | Print | Product List | Glossary On
Versions: 1 2 3 4 5 6 7 8 9 10 11 12 13 14 15 16 17 18 19 20 21 22 23 24 25 26 27 28 29 30 31 32 33 34 35 36 37 38 39 40 41 42 43 44 45 46 47 48 49 50
000
ASUS43 KOAX 221302
RWRNE

WEATHER ROUNDUP FOR NEBRASKA
NATIONAL WEATHER SERVICE OMAHA NE
800 AM CDT TUE AUG 22 2017

NOTES: SATELLITE DATA IS BEING USED TO AUGMENT CLOUD COVER ABOVE
       12000 FEET.
       "FAIR" INDICATES FEW OR NO CLOUDS BELOW 12,000 FEET WITH NO
       SIGNIFICANT WEATHER AND/OR OBSTRUCTIONS TO VISIBILITY.


NEZ001>004-019>022-054>056-221400-
NEBRASKA PANHANDLE

CITY           SKY/WX    TMP DP  RH WIND       PRES   REMARKS
SCOTTSBLUFF    CLEAR     52  46  80 CALM      30.30R
ALLIANCE       CLEAR     44  42  93 CALM      30.29R
CHADRON        CLEAR     47  43  86 SW3       30.27R
GORDON         FAIR      46  43  90 CALM      30.28R
KIMBALL        CLOUDY    56  56 100 S5        30.34R FOG
SIDNEY         CLEAR     50  49  96 SW3       30.32R
$$

NEZ057>060-069>072-079>082-221400-
SOUTHWEST NEBRASKA

CITY           SKY/WX    TMP DP  RH WIND       PRES   REMARKS
NORTH PLATTE   SUNNY     53  51  93 E3        30.24R
IMPERIAL       CLEAR     56  53  90 N7        30.27R
LEXINGTON      SUNNY     58  53  84 NE6       30.23R
MCCOOK         SUNNY     61  57  87 CALM      30.24R
OGALLALA       CLEAR     54  51  92 CALM      30.28R
$$

NEZ005>010-023>029-035>040-094-221400-
NORTH CENTRAL NEBRASKA

CITY           SKY/WX    TMP DP  RH WIND       PRES   REMARKS
VALENTINE      SUNNY     52  46  80 W5        30.25R
AINSWORTH      SUNNY     52  50  91 CALM      30.25R
BROKEN BOW     SUNNY     58  51  78 NW3       30.23R
O`NEILL        SUNNY     56  54  93 NW5       30.22R
ORD            SUNNY     56  52  86 NW3       30.20R
THEDFORD       SUNNY     52  49  92 CALM      30.26S
$$

NEZ041-046>049-061>064-073>077-083>087-221400-
SOUTH CENTRAL NEBRASKA

CITY           SKY/WX    TMP DP  RH WIND       PRES   REMARKS
GRAND ISLAND   SUNNY     60  58  92 N3        30.20R
AURORA         SUNNY     60  59  97 NE3       30.19R
HASTINGS       SUNNY     62  57  83 NE7       30.21R
HEBRON         CLOUDY    65  64  97 CALM      30.17R FOG
HOLDREGE       SUNNY     59  56  89 NE5       30.22R
KEARNEY        SUNNY     59  55  87 NE5       30.22R
$$

NEZ011>018-030>034-042>045-221400-
NORTHEAST NEBRASKA

CITY           SKY/WX    TMP DP  RH WIND       PRES   REMARKS
NORFOLK        SUNNY     59  56  89 NW3       30.16R
ALBION         SUNNY     58  56  94 NW3       30.20R
BLAIR          RAIN      62  62  98 NW7       30.14R
COLUMBUS       SUNNY     60  57  89 N7        30.19R
FREMONT        SUNNY     62  60  92 NW5       30.16R
TEKAMAH        SUNNY     61  57  87 NW8       30.14R
WAYNE          SUNNY     58  55  92 CALM      30.17R
$$

NEZ050>053-065>068-078-088>093-221400-
SOUTHEAST NEBRASKA

CITY           SKY/WX    TMP DP  RH WIND       PRES   REMARKS
LINCOLN        SUNNY     65  60  84 N9        30.16R
OMAHA EPPLEY   MOSUNNY   64  61  90 N10       30.13R
BEATRICE       PTSUNNY   65  64  98 CALM      30.15R FOG
FALLS CITY     MOSUNNY   65  64  97 NW7       30.10R
NEBRASKA CITY  CLOUDY    65  65 100 NW6       30.14R FOG
PLATTSMOUTH    CLOUDY    65  64  98 NW5       30.14R FOG
$$

NEZ044-045-051>053-067-221400-
OMAHA AREA

CITY           SKY/WX    TMP DP  RH WIND       PRES   REMARKS
OMAHA EPPLEY   MOSUNNY   64  61  90 N10       30.13R
BLAIR          RAIN      62  62  98 NW7       30.14R
FREMONT        SUNNY     62  60  92 NW5       30.16R
MILLARD        SUNNY     66  62  87 N6        30.14R
OFFUTT AFB     SUNNY     65  62  90 NW7       30.13R
PLATTSMOUTH    CLOUDY    65  64  98 NW5       30.14R FOG
WAHOO          FAIR      63  62  96 NW7       30.16R
$$




USA.gov is the U.S. government's official web portal to all federal, state and local government web resources and services.